Location: Lecco
(45.8566°N, 9.3977°E)
Time: 13:19:46
(UTC+02:00)

Vanguard 2 Rocket - Pass Details

Date: 20 August 2020
Orbit: 554 x 3326 km, 32.9° (Epoch: 24 September)

Event Time Altitude Azimuth Distance (km) Brightness Sun altitude
Rises 19:44:05 0° 252° (WSW) 3,157 10.9 5.5°
Reaches altitude 10° 19:46:42 10° 234° (SW) 2,476 9.9 5.1°
Maximum altitude 19:51:01 21° 187° (S) 2,229 8.9 4.3°
Drops below altitude 10° 19:57:05 10° 142° (SE) 3,632 9.5 3.3°
Sets 20:02:00 0° 130° (SE) 5,178 10.2 2.5°
